Content
SEND FEEDBACK

Daily
Averages
Monthly
Summary
Canada

MONTREAL, QUEBEC


Home > North America > Canada > Quebec
Elevation: 118 feet     Latitude: 45 28N     Longitude: 073 45W

WEATHER
 
SELECT A DAY
Number of Records: 198,488;   Date Range: 1/1/95 - 8/24/14
 
SHARE

PRINT THIS DATA

[ ← Previous Day ]
WEATHER ALMANAC - SEPTEMBER 18, 2013
[ Next Day → ]
[ °C ]   °F
Weather ElementAverageHighLow
Temperature57.7 °F68 °F (4:00 pm)46.4 °F (5:00 am)
Dewpoint47.5 °F52 °F (2:00 pm)42.8 °F (5:00 am)
Humidity69.3 %87 % (3:00 am)43 % (5:00 pm)
Barometer30.21 in30.29 in (7:00 am)30.10 in (7:00 pm)
Wind Speed8.7 mph13.8 mph (1:00 pm)
Wind Gust18.4 mph (5:00 pm)
Weather ElementAverage
Visibility23.2 mi
Wind DirectionSW (221.9 °)

Weather ElementTotal
Precipitation---
Heating Degree Days7.8 (Base 65)
Growing Degree Days7.2 (Base 50)
Averaged from 27 records on September 18, 2013
WEATHER CONDITIONS BREAKOUT
WIND DIRECTION BREAKOUT
WEATHER BY HOUR - SEPTEMBER 18, 2013
[ °C ]   °F
Local TimeTemperatureDewpointHumidityBarometerVisibilityWind DirectionWind SpeedGust SpeedPrecipitationEventsConditions
1:00 AM53.6 °F46.4 °F77 %30.28 in15.0 miSSW (210°)10.4 mphPartly Cloudy
2:00 AM50.0 °F45.0 °F78 %30.28 in15.0 miWSW (240°)5.8 mphClear
2:00 AM50.0 °F44.6 °F82 %30.28 in15.0 miWSW (240°)4.6 mphPartly Cloudy
3:00 AM48.2 °F44.6 °F87 %30.28 in15.0 miWSW (240°)8.1 mphClear
4:00 AM48.2 °F44.6 °F87 %30.28 in15.0 miSW (220°)8.1 mphClear
5:00 AM46.4 °F42.8 °F87 %30.27 in15.0 miWSW (240°)5.8 mphClear
6:00 AM46.4 °F42.8 °F87 %30.28 in15.0 miSW (230°)6.9 mphClear
7:00 AM48.2 °F42.8 °F82 %30.29 in30.0 miSW (230°)5.8 mphPartly Cloudy
8:00 AM51.0 °F46.0 °F75 %30.28 in28.0 miWSW (240°)6.9 mphScattered Clouds
8:00 AM50.0 °F44.6 °F82 %30.28 in30.0 miWSW (240°)6.9 mphPartly Cloudy
9:00 AM53.6 °F46.4 °F77 %30.28 in30.0 miSW (230°)10.4 mphPartly Cloudy
10:00 AM57.2 °F46.4 °F67 %30.27 in30.0 miSSW (210°)11.5 mphPartly Cloudy
11:00 AM60.8 °F48.2 °F63 %30.25 in30.0 miSSW (210°)10.4 mphPartly Cloudy
12:00 PM62.6 °F51.8 °F68 %30.23 in30.0 miSSW (210°)9.2 mphPartly Cloudy
1:00 PM66.2 °F50.0 °F56 %30.20 in30.0 miSSW (210°)13.8 mphPartly Cloudy
2:00 PM66.0 °F52.0 °F50 %30.18 in28.0 miSSW (210°)13.8 mphScattered Clouds
2:00 PM66.2 °F51.8 °F60 %30.18 in30.0 miSSW (210°)12.7 mphPartly Cloudy
3:00 PM66.2 °F51.8 °F60 %30.16 in30.0 miSSW (200°)12.7 mphPartly Cloudy
4:00 PM68.0 °F46.4 °F46 %30.14 in30.0 miSSW (210°)11.5 mphPartly Cloudy
5:00 PM68.0 °F44.6 °F43 %30.13 in30.0 miSW (220°)11.5 mph18.4 mphPartly Cloudy
6:00 PM68.0 °F46.4 °F46 %30.11 in30.0 miSW (220°)11.5 mphPartly Cloudy
7:00 PM62.6 °F46.4 °F55 %30.10 in30.0 miWSW (250°)8.1 mphPartly Cloudy
8:00 PM61.0 °F51.0 °F61 %30.11 in15.0 miSSW (210°)8.1 mphScattered Clouds
8:00 PM60.8 °F51.8 °F72 %30.11 in15.0 miSSW (210°)6.9 mphPartly Cloudy
9:00 PM60.8 °F50.0 °F68 %30.12 in15.0 miSouth (190°)4.6 mphPartly Cloudy
10:00 PM60.8 °F51.8 °F72 %30.11 in15.0 miSouth (190°)6.9 mphPartly Cloudy
11:00 PM57.2 °F51.8 °F82 %30.12 in15.0 miWest (270°)2.3 mphPartly Cloudy
Hourly data recorded from CYUL, located miles away from Montreal, Quebec







STORIES FROM OUR PARTNERS